Weather in Harrachov

Czech Republic     50°46′29″N   15°25′32″E
temp.,
°C
wind,
m/s
gust,
m/s
humid.,
%
clouds,
%
prec.,
mm/h
press.,
hPa
HPBL,
m
18 may, wed
wed1823:00+8ne119351 0.0 102414
02:00+7ene119513 0.0 102511
05:00+7ese119498 0.0 102610
08:00+12s117698 0.0 1026373
11:00+16ssw115091 0.0 10261509
14:00+17ssw2252100 0.1 10261456
17:00+16ssw225453 0.0 10261397
20:00+12ssw22815 0.0 102672
19 may, thu
thu1923:00+8sse228568 0.0 102828
02:00+7s12825 0.0 102828
05:00+6s12687 0.0 102727
08:00+12s244557 0.0 1026274
11:00+17s343491 0.0 1025630
14:00+20s343576 0.0 1024844
17:00+18s3544100 0.0 1023810
20:00+13s2374100 0.0 102377
20 may, fri
fri2023:00+10s2380100 0.0 102450
02:00+12s2270100 0.0 102337
05:00+11s1186100 0.6 102218
08:00+14sw128463 0.8 102391
11:00+21wsw365694 0.0 10221152
14:00+22w4658100 0.2 10211556
17:00+20w3575100 0.9 1020960
20:00+16wsw1191100 3.8 101813
21 may, sat
sat2123:00+15sse259698 3.7 1016129
02:00+15ssw41294100 4.6 1013415
05:00+14sw279998 5.3 1012381
08:00+10wnw61294100 6.2 10151046
11:00+8w61390100 0.1 10181103
14:00+12w71470100 0.4 10171679
17:00+13wnw814666 0.3 10161594
20:00+10wnw7158481 0.3 10171363
22 may, sun
sun2223:00+8nw4138797 0.2 10181185
02:00+7nw31091100 0.3 1018998
05:00+7nw3892100 0.2 1018881
08:00+7nw3994100 0.4 1019879
11:00+7nw3791100 0.3 1020947
14:00+8nw378889 0.6 1019865
17:00+8nw388697 0.3 1019895
20:00+8nnw258835 0.4 1019295